Location: *
(50.3194°N, 7.1067°E)
Time: 03:33:46
(UTC+00:00)

Meteor 1-15 Rocket - Pass Details

Date: 22 September 2019
Orbit: 840 x 907 km, 81.2° (Epoch: 19 October)

Event Time Altitude Azimuth Distance (km) Brightness Sun altitude
Rises 18:42:31 0° 182° (S) 3,463 7.3 -12.2°
Reaches altitude 10° 18:44:56 10° 180° (S) 2,539 6.5 -12.5°
Maximum altitude 18:50:41 71° 98° (E) 948 4.3 -13.4°
Drops below altitude 10° 18:56:34 10° 16° (NNE) 2,593 6.8 -14.3°
Sets 18:59:04 0° 14° (NNE) 3,543 7.5 -14.7°
